Baton Rouge, LA

7:11 AM CST on December 10, 2019 (GMT -0600)
Baton Rouge Metro-Ryan

Weather History for KBTR - July, 2019

Change the Weather History Date:

Tuesday, July 16, 2019

  Actual Average Record
Temperature  
Mean Temperature 86 °F 83 °F  
Max Temperature 93 °F 92 °F 101 °F (1909)
Min Temperature 79 °F 74 °F 59 °F (1967)
Degree Days  
Heating Degree Days 0 0  
Month to date heating degree days 0 0  
Since 1 June heating degree days 0 0  
Since 1 July heating degree days 0 0  
Cooling Degree Days 21 18  
Month to date cooling degree days 305 288  
Year to date cooling degree days 1482 1337  
Since 1 June cooling degree days 811 772  
Growing Degree Days 35 (Base 50)    
Moisture  
Dew Point 77 °F    
Average Humidity 80    
Maximum Humidity 100    
Minimum Humidity 59    
Precipitation  
Precipitation 0.00 in 0.14 in 2.73 in (1972)
Month to date precipitation 4.41 2.69  
Year to date precipitation 38.66 33.62  
Snow  
Snow 0.00 in - - ()
Month to date snowfall 0.0  
Since 1 June snowfall 0.0  
Since 1 July snowfall 0.0  
Snow Depth 0.00 in    
Sea Level Pressure  
Sea Level Pressure 30.05 in    
Wind  
Wind Speed 10 mph (South)    
Max Wind Speed 17 mph    
Max Gust Speed 25 mph    
Visibility 10 miles    
Events      
T = Trace of Precipitation, MM = Missing Value Source: NWS Daily Summary

Daily Weather History Graph

Daily Weather History Graph

Search for Another Location

Airport or City:

Astronomy

Jul. 16, 2019 Rise Set
Actual Time 6:13 AM CDT 8:08 PM CDT
Civil Twilight 5:46 AM CDT 8:35 PM CDT
Nautical Twilight 5:13 AM CDT 9:07 PM CDT
Astronomical Twilight 4:38 AM CDT 9:42 PM CDT
Moon 8:13 PM CDT (7/16) 5:52 AM CDT (7/16)
Length of Visible Light 14h 49m
Length of Day
13h 55m
Full, 100% of the Moon is Illuminated
Jul 16
Full
Jul 16
Full
Jul 24
Last Quarter
Jul 31
New
Aug 7
First Quarter

Hourly Weather History & Observations

Time (CDT) Temp. Heat Index Dew Point Humidity Pressure Visibility Wind Dir Wind Speed Gust Speed Precip Events Conditions
12:30 AM 80.1 °F 86.4 °F 78.1 °F 94% 30.03 in 10.0 mi SE 8.1 mph - N/A   Partly Cloudy
12:53 AM 80.1 °F 86.4 °F 78.1 °F 94% 30.03 in 10.0 mi SSE 11.5 mph - N/A   Scattered Clouds
1:01 AM 80.1 °F 86.4 °F 78.1 °F 94% 30.03 in 10.0 mi SSE 10.4 mph - N/A   Mostly Cloudy
1:46 AM 81.0 °F 88.6 °F 78.1 °F 91% 30.03 in 10.0 mi SSE 9.2 mph - N/A   Overcast
1:53 AM 81.0 °F 88.6 °F 78.1 °F 91% 30.02 in 10.0 mi SSE 11.5 mph - N/A   Overcast
2:03 AM 80.1 °F 86.4 °F 78.1 °F 94% 30.02 in 10.0 mi SSE 10.4 mph - N/A   Mostly Cloudy
2:15 AM 80.1 °F 86.4 °F 78.1 °F 94% 30.02 in 10.0 mi SSE 8.1 mph - N/A   Mostly Cloudy
2:53 AM 80.1 °F 86.4 °F 78.1 °F 94% 30.02 in 10.0 mi South 8.1 mph - N/A   Mostly Cloudy
3:53 AM 80.1 °F 86.4 °F 78.1 °F 94% 30.02 in 10.0 mi South 6.9 mph - N/A   Mostly Cloudy
4:20 AM 80.1 °F 86.4 °F 78.1 °F 94% 30.03 in 10.0 mi SSE 8.1 mph - N/A   Scattered Clouds
4:53 AM 80.1 °F 86.4 °F 78.1 °F 94% 30.03 in 10.0 mi South 6.9 mph - N/A   Partly Cloudy
5:53 AM 79.0 °F - 78.1 °F 97% 30.05 in 10.0 mi South 6.9 mph - N/A   Scattered Clouds
6:53 AM 80.1 °F 86.4 °F 78.1 °F 94% 30.06 in 8.0 mi SSE 5.8 mph - N/A   Scattered Clouds
7:11 AM 80.1 °F 86.4 °F 78.1 °F 94% 30.07 in 8.0 mi SSE 5.8 mph - N/A   Partly Cloudy
7:53 AM 82.0 °F 91.6 °F 79.0 °F 90% 30.07 in 10.0 mi South 9.2 mph - N/A   Mostly Cloudy
8:53 AM 84.0 °F 94.8 °F 78.1 °F 82% 30.08 in 10.0 mi SSE 11.5 mph - N/A   Mostly Cloudy
8:58 AM 82.9 °F 92.8 °F 78.1 °F 85% 30.08 in 10.0 mi South 10.4 mph - N/A   Mostly Cloudy
9:51 AM 86.0 °F 99.3 °F 78.8 °F 79% 30.10 in 10.0 mi South 13.8 mph - N/A   Mostly Cloudy
9:53 AM 86.0 °F 96.9 °F 77.0 °F 74% 30.09 in 10.0 mi South 11.5 mph - N/A   Mostly Cloudy
10:53 AM 87.1 °F 97.3 °F 75.9 °F 69% 30.09 in 10.0 mi South 15.0 mph - N/A   Mostly Cloudy
11:53 AM 91.0 °F 102.9 °F 75.9 °F 61% 30.09 in 10.0 mi South 11.5 mph - N/A   Mostly Cloudy
12:53 PM 91.0 °F 102.9 °F 75.9 °F 61% 30.07 in 10.0 mi SSW 8.1 mph - N/A   Mostly Cloudy
1:53 PM 90.0 °F 100.2 °F 75.0 °F 61% 30.06 in 10.0 mi South 10.4 mph - N/A   Mostly Cloudy
2:53 PM 91.9 °F 103.2 °F 75.0 °F 58% 30.05 in 10.0 mi South 12.7 mph - N/A   Mostly Cloudy
3:53 PM 91.0 °F 104.2 °F 77.0 °F 63% 30.04 in 10.0 mi South 13.8 mph - N/A   Mostly Cloudy
4:53 PM 91.9 °F 105.9 °F 77.0 °F 62% 30.03 in 10.0 mi SSW 17.3 mph 21.9 mph N/A   Mostly Cloudy
5:53 PM 90.0 °F 99.0 °F 73.9 °F 59% 30.02 in 10.0 mi SW 13.8 mph - N/A   Partly Cloudy
6:53 PM 88.0 °F 98.5 °F 75.9 °F 67% 30.02 in 10.0 mi SW 10.4 mph - N/A   Clear
7:53 PM 86.0 °F 95.1 °F 75.0 °F 70% 30.02 in 10.0 mi SW 8.1 mph - N/A   Scattered Clouds
8:53 PM 84.9 °F 94.1 °F 75.9 °F 74% 30.04 in 10.0 mi South 10.4 mph - N/A   Clear
9:53 PM 82.9 °F 90.8 °F 75.9 °F 79% 30.06 in 10.0 mi SSW 5.8 mph - N/A   Clear
10:53 PM 81.0 °F 87.3 °F 75.9 °F 85% 30.08 in 10.0 mi South 5.8 mph - N/A   Clear
11:53 PM 81.0 °F 87.3 °F 75.9 °F 85% 30.08 in 10.0 mi South 8.1 mph - N/A   Clear